CAPE
40 46 44 40 38 39 55 64 63 74 73 67 93 92 80 56 37 18 5 35 35 30 0 17 15 64 3 0 0 0 37 5 0 9 0 0 0 0 0 0 0 0 0 0 0 0 0 0 0 0 0 0 0 0
34 42 54 54 49 49 57 63 72 76 71 82 105 110 95 82 80 31 19 32 57 8 1 0 0 0 0 0 0 0 0 1 1 1 0 0 0 0 0 0 0 0 0 0 0 0 0 0 0 0 0 0 0 0
72 60 52 55 55 55 66 60 61 74 75 81 81 96 80 59 59 52 24 83 23 6 0 0 0 0 0 0 0 0 2 0 0 0 0 0 1 0 0 0 0 0 0 0 0 0 0 0 0 0 0 0 0 0
68 57 61 58 50 51 51 62 55 51 52 79 72 92 94 111 79 52 73 49 27 16 12 0 0 0 0 1 0 0 10 7 0 0 0 0 0 0 0 0 0 0 0 0 0 0 0 0 0 0 0 0 0 0
60 59 53 31 25 23 45 10 12 31 39 56 90 111 146 112 86 57 19 15 53 7 11 2 0 0 2 0 6 0 15 8 0 0 0 0 0 0 0 0 0 0 0 0 0 0 0 0 0 0 0 0 0 0
55 49 31 42 58 51 46 44 23 21 27 34 78 130 128 76 73 48 4 0 41 64 36 5 0 0 0 1 22 0 0 0 0 0 0 0 0 0 0 0 0 0 0 0 0 0 0 0 0 0 0 0 0 0
34 35 42 50 46 53 45 46 31 38 44 45 32 78 60 14 1 8 7 3 1 43 27 2 0 0 0 0 0 0 0 0 0 0 0 0 0 0 0 0 0 0 0 0 0 0 0 0 0 0 0 0 0 0
9 0 17 42 44 23 5 3 16 58 50 56 28 28 33 34 15 0 9 0 0 55 62 5 0 0 0 0 0 0 0 0 0 0 0 0 0 0 0 0 0 0 0 0 0 0 0 0 0 0 0 0 0 0
23 16 10 2 5 0 0 0 0 9 26 40 41 37 66 36 0 0 1 10 2 27 4 2 0 0 0 0 0 0 0 0 0 0 0 0 0 0 0 0 0 0 0 0 0 0 0 0 0 0 0 0 0 0
5 5 5 0 0 0 0 0 0 0 11 28 16 82 15 23 10 27 1 0 4 3 0 1 0 0 0 0 0 0 0 1 0 0 0 0 0 0 0 0 0 0 0 0 0 1 0 0 0 0 0 0 0 0
19 7 1 1 0 0 0 0 0 0 24 32 5 1 13 18 15 2 2 1 1 0 0 0 0 0 0 0 0 0 0 0 0 0 0 0 0 0 0 0 0 0 0 0 0 0 0 0 0 0 0 0 0 0
3 2 4 0 0 0 0 0 0 6 26 7 15 6 0 0 0 0 0 1 0 0 0 0 0 0 0 0 0 0 0 0 0 0 0 0 0 0 0 0 0 0 0 0 0 0 0 0 0 0 0 0 0 1
3 7 4 0 0 0 1 0 4 3 28 0 0 0 1 0 0 0 0 0 0 0 0 1 0 0 0 0 0 0 0 0 0 0 0 0 0 0 0 0 0 0 0 0 0 0 0 0 0 0 1 1 0 0
1 5 5 4 3 2 0 0 0 2 0 0 0 0 0 0 1 1 1 0 0 0 0 0 0 0 0 0 0 0 0 0 0 0 0 0 0 0 0 0 0 0 0 0 0 0 0 0 0 0 0 0 0 0
0 0 0 0 4 4 0 0 0 0 0 0 0 0 0 1 0 0 0 0 0 0 0 0 0 0 0 0 0 0 0 0 0 0 0 0 0 0 0 0 0 0 0 0 0 0 0 0 0 0 0 0 0 0
0 0 0 0 0 0 0 0 0 0 0 0 0 0 0 0 0 0 0 0 0 0 0 0 0 0 0 0 0 1 0 0 0 0 0 0 0 0 0 0 0 0 0 0 0 0 0 0 0 0 0 0 0 0
0 0 0 0 0 0 0 0 0 0 0 0 0 0 0 1 2 4 0 1 0 0 1 0 0 1 0 0 0 4 0 1 0 0 0 0 0 0 1 0 0 0 0 0 0 0 0 0 0 0 0 0 0 0
0 0 0 0 0 0 0 0 0 0 0 0 0 5 0 1 0 0 1 0 0 0 0 1 0 0 0 0 0 1 3 1 0 0 0 0 0 0 0 1 3 1 0 1 0 0 0 0 0 0 0 0 0 0
0 0 0 0 0 0 0 0 0 0 0 0 1 0 3 3 1 0 0 0 0 0 0 2 0 2 2 5 2 0 0 2 0 0 0 0 0 0 0 0 0 0 0 1 0 0 0 0 0 0 0 0 0 0
0 0 0 0 0 0 0 0 0 0 1 0 6 0 4 2 0 0 0 0 0 2 2 0 2 3 5 3 1 3 1 1 0 0 1 1 1 0 0 1 1 1 1 1 1 0 0 0 0 0 0 0 0 0
0 0 0 0 0 0 0 0 0 0 0 0 0 0 0 0 0 0 0 0 0 7 7 7 2 5 7 4 2 2 2 1 1 0 2 1 1 1 1 1 2 1 0 0 0 0 0 0 1 0 0 0 0 0
0 0 0 0 0 0 0 0 0 0 0 0 0 0 0 0 0 0 0 0 3 7 6 4 4 3 1 3 3 2 4 2 1 0 0 0 0 0 0 0 0 0 0 0 0 0 0 1 0 0 0 0 0 0
0 0 0 0 0 0 0 0 0 0 0 0 0 0 0 0 0 0 0 9 6 5 8 2 1 0 0 0 0 1 1 0 1 1 1 0 0 0 0 0 0 0 0 0 1 0 0 0 0 0 0 0 0 0
0 0 0 0 0 0 0 0 0 0 0 0 0 0 0 0 0 0 0 0 3 0 2 0 0 0 0 0 0 0 1 0 0 0 0 0 0 0 0 0 0 0 0 0 0 0 0 0 0 0 0 0 0 0
0 0 0 0 0 0 0 0 0 0 0 0 0 0 0 0 0 0 0 0 0 0 0 0 0 0 0 0 0 0 1 0 0 0 0 0 0 0 0 0 0 0 0 0 0 0 0 0 0 0 0 0 0 0
0 0 0 0 0 0 0 0 0 0 0 0 0 0 0 0 0 0 0 0 0 0 0 0 0 0 0 0 0 0 0 0 0 0 0 0 0 0 0 0 0 0 0 0 0 0 0 0 0 0 0 0 0 0
0 0 0 0 0 0 0 0 0 0 0 0 0 0 0 0 0 0 0 0 0 0 0 0 0 0 0 0 0 0 0 0 0 0 0 0 0 0 0 0 0 0 0 0 0 0 0 0 0 0 0 0 0 0
0 0 0 0 0 0 0 0 0 0 0 0 0 0 0 0 0 0 0 2 0 0 1 0 0 0 0 0 0 0 0 0 0 0 0 0 0 0 0 0 0 0 0 0 0 0 0 0 0 0 0 0 0 0
0 0 0 0 0 0 0 0 0 0 0 0 0 0 0 0 0 0 0 0 0 0 0 0 0 0 0 0 0 0 0 0 0 0 0 0 0 0 0 0 0 0 0 0 0 0 2 0 0 0 0 0 0 0
0 0 0 0 0 0 1 0 0 0 0 0 0 1 0 0 0 0 0 0 0 0 0 0 0 0 0 0 0 0 0 0 0 0 0 0 0 0 0 0 0 0 0 0 0 0 0 0 0 0 0 0 0 0
0 0 0 0 0 0 0 0 0 0 0 0 0 0 0 0 0 0 0 0 0 0 0 0 0 0 0 0 0 0 0 0 0 0 0 0 0 0 0 0 0 0 0 0 0 0 0 0 0 0 0 0 0 0
0 0 0 0 0 0 0 0 0 0 0 0 0 0 0 0 0 0 0 0 0 0 0 0 0 0 0 0 0 0 0 0 0 0 0 0 0 0 0 0 0 0 0 0 0 0 0 0 0 0 0 0 0 0
0 0 0 0 0 0 0 0 0 0 0 0 0 0 0 0 0 0 0 0 0 0 0 0 0 0 0 0 0 0 0 0 0 0 0 0 0 0 0 0 0 0 0 0 0 0 0 0 0 0 0 0 0 0
CIN
-0 -0 -0 -0 -0 -0 -0 -0 -0 -0 -0 -0 -0 -0 -0 -0 -4 -0 -1 -8 -0 -0 -0 -40 -18 -10 -58 -0 -0 -0 -63 -47 -0 -64 -0 -0 -0 -0 -0 -0 -0 -0 -0 -0 -0 -0 -0 -0 -0 -0 -0 -0 -0 -0
-0 -0 -0 -0 -0 -0 -0 -0 -0 -0 -0 -0 -0 -0 -0 -0 -0 -1 -0 -0 -6 -0 -0 -0 -0 -0 -0 -0 -0 -0 -0 -60 -8 -10 -0 -0 -0 -0 -0 -0 -0 -0 -0 -0 -0 -0 -0 -0 -0 -0 -0 -0 -0 -0
-0 -0 -0 -0 -0 -0 -0 -0 -0 -0 -0 -0 -0 -0 -0 -0 -3 -1 -0 -1 -4 -0 -0 -0 -0 -0 -0 -0 -0 -0 -13 -0 -0 -0 -0 -0 -43 -0 -0 -0 -0 -0 -0 -0 -0 -0 -0 -0 -0 -0 -0 -0 -0 -0
-0 -0 -0 -0 -0 -0 -0 -1 -2 -0 -0 -0 -1 -0 -0 -0 -0 -0 -0 -8 -5 -0 -0 -0 -0 -0 -0 -79 -0 -0 -38 -99 -0 -0 -0 -0 -0 -0 -0 -0 -0 -0 -0 -0 -0 -0 -0 -0 -0 -0 -0 -0 -0 -0
-2 -2 -2 -1 -0 -1 -0 -0 -5 -0 -0 -0 -0 -0 -0 -1 -0 -2 -13 -20 -20 -1 -0 -2 -0 -0 -74 -0 -207 -0 -117 -171 -0 -0 -0 -0 -0 -0 -0 -0 -0 -0 -0 -0 -0 -0 -0 -0 -0 -0 -0 -0 -0 -0
-2 -5 -1 -1 -2 -4 -4 -4 -1 -0 -0 -0 -0 -0 -0 -11 -14 -8 -7 -1 -10 -4 -0 -0 -0 -0 -5 -4 -159 -0 -1 -0 -0 -0 -0 -0 -0 -0 -0 -0 -0 -0 -0 -0 -0 -0 -0 -0 -0 -0 -0 -0 -0 -0
-1 -2 -3 -3 -3 -0 -0 -1 -6 -6 -0 -0 -9 -0 -1 -12 -12 -2 -18 -13 -23 -13 -1 -0 -0 -0 -0 -0 -0 -0 -0 -0 -0 -0 -0 -0 -0 -0 -0 -0 -0 -0 -0 -0 -0 -0 -0 -0 -0 -0 -0 -0 -0 -0
-1 -0 -2 -2 -0 -0 -1 -2 -0 -3 -7 -2 -2 -9 -12 -9 -5 -0 -59 -0 -0 -17 -1 -0 -0 -0 -0 -0 -0 -0 -0 -0 -0 -0 -0 -0 -0 -0 -0 -0 -0 -0 -0 -0 -0 -0 -0 -0 -0 -0 -0 -0 -0 -0
-8 -14 -18 -1 -0 -0 -0 -0 -0 -11 -9 -16 -17 -18 -15 -13 -0 -0 -10 -16 -50 -18 -1 -4 -0 -0 -0 -0 -0 -0 -0 -0 -0 -0 -0 -0 -0 -0 -0 -0 -0 -0 -0 -0 -0 -0 -0 -0 -0 -0 -0 -0 -0 -0
-4 -0 -2 -0 -0 -0 -0 -0 -0 -0 -48 -22 -3 -1 -10 -33 -16 -2 -9 -0 -2 -0 -0 -0 -0 -0 -0 -0 -0 -0 -0 -0 -0 -0 -0 -0 -0 -0 -0 -0 -0 -0 -0 -0 -0 -0 -0 -0 -0 -0 -0 -0 -0 -0
-1 -3 -2 -0 -0 -0 -0 -0 -0 -0 -15 -23 -16 -0 -4 -56 -36 -16 -0 -0 -0 -0 -0 -0 -0 -0 -0 -0 -0 -0 -0 -0 -0 -0 -0 -0 -0 -0 -0 -0 -0 -0 -0 -0 -0 -0 -0 -0 -0 -0 -0 -0 -0 -0
-1 -0 -2 -0 -0 -0 -0 -0 -0 -1 -1 -4 -14 -8 -0 -0 -0 -0 -0 -0 -0 -0 -0 -0 -0 -0 -0 -0 -0 -0 -0 -0 -0 -0 -0 -0 -0 -0 -0 -0 -0 -0 -0 -0 -0 -0 -0 -0 -0 -0 -0 -0 -0 -0
-0 -0 -0 -0 -0 -0 -0 -0 -0 -6 -4 -0 -0 -0 -0 -0 -0 -0 -0 -0 -0 -0 -0 -0 -0 -0 -0 -0 -0 -0 -0 -0 -0 -0 -0 -0 -0 -0 -0 -0 -0 -0 -0 -0 -0 -0 -0 -0 -0 -0 -0 -0 -0 -0
-0 -0 -0 -0 -0 -0 -0 -0 -0 -11 -0 -0 -0 -0 -0 -0 -0 -0 -0 -0 -0 -0 -0 -0 -0 -0 -0 -0 -0 -0 -0 -0 -0 -0 -0 -0 -0 -0 -0 -0 -0 -0 -0 -0 -0 -0 -0 -0 -0 -0 -0 -0 -0 -0
-0 -0 -0 -0 -0 -0 -0 -0 -0 -0 -0 -0 -0 -0 -0 -0 -0 -0 -0 -0 -0 -0 -0 -0 -0 -0 -0 -0 -0 -0 -0 -0 -0 -0 -0 -0 -0 -0 -0 -0 -0 -0 -0 -0 -0 -0 -0 -0 -0 -0 -0 -0 -0 -0
-0 -0 -0 -0 -0 -0 -0 -0 -0 -0 -0 -0 -0 -0 -0 -0 -0 -0 -0 -0 -0 -0 -0 -0 -0 -0 -0 -0 -0 -0 -0 -0 -0 -0 -0 -0 -0 -0 -0 -0 -0 -0 -0 -0 -0 -0 -0 -0 -0 -0 -0 -0 -0 -0
-0 -0 -0 -0 -0 -0 -0 -0 -0 -0 -0 -0 -0 -0 -0 -0 -0 -0 -0 -0 -0 -0 -0 -0 -0 -0 -0 -0 -0 -0 -0 -0 -0 -0 -0 -0 -0 -0 -0 -0 -0 -0 -0 -0 -0 -0 -0 -0 -0 -0 -0 -0 -0 -0
-0 -0 -0 -0 -0 -0 -0 -0 -0 -0 -0 -0 -0 -0 -0 -0 -0 -0 -0 -0 -0 -0 -0 -0 -0 -0 -0 -0 -0 -0 -0 -0 -0 -0 -0 -0 -0 -0 -0 -0 -0 -0 -0 -0 -0 -0 -0 -0 -0 -0 -0 -0 -0 -0
-0 -0 -0 -0 -0 -0 -0 -0 -0 -0 -0 -0 -0 -0 -0 -0 -0 -0 -0 -0 -1 -0 -0 -0 -0 -0 -0 -0 -0 -0 -0 -0 -0 -0 -0 -0 -0 -0 -0 -0 -0 -0 -0 -0 -0 -0 -0 -0 -0 -0 -0 -0 -0 -0
-0 -0 -0 -0 -0 -0 -0 -0 -0 -0 -0 -0 -0 -0 -1 -0 -0 -0 -0 -0 -0 -0 -0 -0 -0 -0 -0 -0 -0 -0 -0 -0 -0 -0 -0 -0 -0 -0 -0 -0 -0 -0 -0 -0 -0 -0 -0 -0 -0 -0 -0 -0 -0 -0
-0 -0 -0 -0 -0 -0 -0 -0 -0 -0 -0 -0 -0 -0 -10 -0 -0 -0 -0 -0 -0 -0 -0 -0 -0 -0 -0 -0 -0 -0 -0 -0 -0 -0 -0 -0 -0 -0 -0 -0 -0 -0 -0 -0 -0 -0 -0 -0 -0 -0 -0 -0 -0 -0
-0 -0 -0 -0 -0 -0 -0 -0 -0 -0 -0 -0 -0 -0 -0 -0 -0 -0 -0 -0 -0 -0 -0 -0 -0 -0 -0 -0 -0 -0 -0 -0 -0 -0 -0 -0 -0 -0 -0 -0 -0 -0 -0 -0 -0 -0 -0 -0 -0 -0 -0 -0 -0 -0
-0 -0 -0 -0 -0 -0 -0 -0 -0 -0 -0 -0 -0 -0 -0 -0 -0 -0 -0 -0 -0 -0 -0 -0 -0 -0 -0 -0 -0 -0 -0 -0 -0 -0 -0 -0 -0 -0 -0 -0 -0 -0 -0 -0 -0 -0 -0 -0 -0 -0 -0 -0 -0 -0
-0 -0 -0 -0 -0 -0 -0 -0 -1 -0 -0 -0 -0 -0 -0 -0 -0 -0 -0 -0 -0 -0 -0 -0 -0 -0 -0 -0 -0 -0 -0 -0 -0 -0 -0 -0 -0 -0 -0 -0 -0 -0 -0 -0 -0 -0 -0 -0 -0 -0 -0 -0 -0 -0
-0 -0 -0 -0 -0 -0 -0 -0 -0 -0 -0 -0 -0 -0 -0 -0 -0 -0 -0 -0 -0 -0 -0 -0 -0 -0 -0 -0 -0 -0 -0 -0 -0 -0 -0 -0 -0 -0 -0 -0 -0 -0 -0 -0 -0 -0 -0 -0 -0 -0 -0 -0 -0 -0
-0 -0 -0 -0 -0 -0 -0 -0 -0 -0 -0 -0 -0 -0 -0 -0 -0 -0 -0 -0 -0 -0 -0 -0 -0 -0 -0 -0 -0 -0 -0 -0 -0 -0 -0 -0 -0 -0 -0 -0 -0 -0 -0 -0 -0 -0 -0 -0 -0 -0 -0 -0 -0 -0
-0 -0 -0 -0 -0 -0 -0 -0 -0 -0 -0 -0 -0 -0 -0 -0 -0 -0 -0 -0 -0 -0 -0 -0 -0 -0 -0 -0 -0 -0 -0 -0 -0 -0 -0 -0 -0 -0 -0 -0 -0 -0 -0 -0 -0 -0 -0 -0 -0 -0 -0 -0 -0 -0
-0 -0 -0 -0 -0 -0 -0 -0 -0 -0 -0 -0 -0 -0 -0 -0 -0 -0 -0 -0 -0 -0 -0 -0 -0 -0 -0 -0 -0 -0 -0 -0 -0 -0 -0 -0 -0 -0 -0 -0 -0 -0 -0 -0 -0 -0 -0 -0 -0 -0 -0 -0 -0 -0
-0 -0 -0 -0 -0 -0 -0 -0 -0 -0 -0 -0 -0 -0 -0 -0 -0 -0 -0 -0 -0 -0 -0 -0 -0 -0 -0 -0 -0 -0 -0 -0 -0 -0 -0 -0 -0 -0 -0 -0 -0 -0 -0 -0 -0 -0 -0 -0 -0 -0 -0 -0 -0 -0
-0 -0 -0 -0 -0 -0 -0 -0 -0 -0 -0 -0 -0 -0 -0 -0 -0 -0 -0 -0 -0 -0 -0 -0 -0 -0 -0 -0 -0 -0 -0 -0 -0 -0 -0 -0 -0 -0 -0 -0 -0 -0 -0 -0 -0 -0 -0 -0 -0 -0 -0 -0 -0 -0
-0 -0 -0 -0 -0 -0 -0 -0 -0 -0 -0 -0 -0 -0 -0 -0 -0 -0 -0 -0 -0 -0 -0 -0 -0 -0 -0 -0 -0 -0 -0 -0 -0 -0 -0 -0 -0 -0 -0 -0 -0 -0 -0 -0 -0 -0 -0 -0 -0 -0 -0 -0 -0 -0
-0 -0 -0 -0 -0 -0 -0 -0 -0 -0 -0 -0 -0 -0 -0 -0 -0 -0 -0 -0 -0 -0 -0 -0 -0 -0 -0 -0 -0 -0 -0 -0 -0 -0 -0 -0 -0 -0 -0 -0 -0 -0 -0 -0 -0 -0 -0 -0 -0 -0 -0 -0 -0 -0
-0 -0 -0 -0 -0 -0 -0 -0 -0 -0 -0 -0 -0 -0 -0 -0 -0 -0 -0 -0 -0 -0 -0 -0 -0 -0 -0 -0 -0 -0 -0 -0 -0 -0 -0 -0 -0 -0 -0 -0 -0 -0 -0 -0 -0 -0 -0 -0 -0 -0 -0 -0 -0 -0
Wind_Speed
31 31 30 30 29 29 29 29 29 29 28 27 28 28 25 27 27 11 7 7 2 1 4 6 5 7 7 13 12 4 7 2 3 4 5 5 4 6 5 5 8 8 8 4 4 4 7 4 5 9 8 3 7 5
24 25 25 25 25 24 24 24 25 25 25 26 26 26 26 25 24 18 4 10 4 1 4 5 11 17 7 6 11 5 4 8 7 5 2 3 3 2 5 4 2 3 9 9 10 9 4 2 5 1 4 8 5 7
21 22 22 22 22 21 21 21 22 24 25 26 25 23 22 21 23 17 7 5 3 3 6 4 7 8 7 10 7 7 3 1 3 4 5 2 4 5 5 6 4 3 4 5 5 2 1 1 2 4 4 5 6 6
19 21 21 22 20 18 19 16 18 23 26 24 24 23 25 24 25 20 9 3 5 1 3 7 3 6 5 7 9 7 7 6 5 3 3 4 3 3 4 5 6 6 8 7 2 1 3 4 3 7 11 11 13 12
17 17 18 18 17 15 19 16 13 17 25 28 24 23 24 26 23 13 3 2 4 3 3 4 8 8 8 7 11 12 6 7 4 3 3 3 3 4 3 2 2 6 9 8 8 12 6 5 7 8 12 10 11 15
15 17 18 17 17 15 15 14 17 16 16 25 27 29 26 26 19 5 2 2 5 3 2 4 5 6 8 3 10 8 6 4 3 5 3 0 3 4 5 4 3 2 1 3 6 12 7 13 8 7 12 10 11 13
16 15 16 16 17 17 16 16 18 21 23 20 21 28 27 23 7 4 4 4 14 3 2 5 5 3 4 1 2 4 4 3 2 2 3 3 3 4 5 3 3 4 7 13 17 18 10 3 7 11 14 14 15 13
16 16 17 17 19 17 16 19 21 21 23 24 21 22 23 17 4 4 1 18 11 6 1 4 5 5 6 3 2 2 3 2 5 2 1 3 3 3 1 2 1 9 13 10 6 7 13 18 15 14 14 15 16 13
17 18 18 19 19 19 17 18 17 17 19 20 21 20 6 2 3 4 11 8 3 3 5 3 3 4 3 3 3 1 2 3 1 2 2 3 2 3 1 6 5 9 4 13 14 17 17 18 16 15 14 13 15 10
20 19 19 19 19 19 18 16 15 15 16 19 7 3 4 6 12 7 5 5 1 2 0 3 2 1 3 3 3 3 3 2 4 4 2 3 4 3 5 1 7 10 16 17 19 11 14 14 14 14 12 10 11 10
20 19 19 19 17 17 17 16 16 18 17 4 4 3 3 10 5 4 1 3 2 1 2 2 1 4 1 3 3 2 5 4 6 4 4 3 3 4 2 4 7 9 10 3 10 12 11 16 16 15 13 12 11 10
24 21 21 19 19 20 23 21 21 11 6 7 4 6 3 4 4 3 2 1 3 4 1 1 1 2 1 2 2 3 4 3 2 1 4 1 1 6 6 7 8 8 11 13 14 16 15 15 14 14 13 12 10 10
23 26 24 21 22 18 12 12 15 8 3 1 6 7 5 5 4 4 4 2 2 3 2 3 3 1 3 4 4 4 5 2 0 3 2 2 2 6 7 9 10 11 14 16 16 15 16 16 14 15 13 10 11 10
19 20 22 22 19 19 19 17 18 8 2 7 5 6 3 2 3 3 3 2 2 1 2 2 2 3 2 5 2 6 2 2 4 2 3 0 3 6 8 9 13 13 13 15 15 15 15 15 13 10 11 10 10 10
23 21 20 16 19 19 20 15 9 4 4 4 4 6 5 2 2 1 1 1 3 2 3 3 3 2 4 5 3 2 3 4 3 1 3 1 6 10 10 9 12 12 11 12 12 13 13 13 12 11 9 9 10 9
12 18 10 13 13 13 14 10 4 3 4 5 8 4 3 3 5 4 5 3 4 3 2 2 3 4 4 3 4 5 3 4 3 3 2 4 7 9 10 10 11 11 11 11 11 12 11 11 11 11 10 9 8 8
12 5 8 7 16 14 11 5 4 8 6 7 4 5 4 2 4 4 4 4 4 1 3 3 6 5 3 5 4 5 4 4 4 2 2 4 8 10 11 11 11 11 11 10 10 10 10 11 11 10 11 9 9 8
5 5 9 3 5 7 6 8 6 8 9 4 4 6 7 6 5 6 7 7 4 3 4 5 4 8 6 5 4 4 4 5 3 3 4 5 8 8 9 10 10 9 9 9 10 10 10 10 9 7 9 8 9 8
7 8 16 13 6 8 6 8 6 7 6 3 4 3 5 5 8 7 7 8 6 6 5 5 7 5 4 4 4 7 7 6 3 4 6 7 6 7 8 8 8 9 9 10 10 8 7 9 7 6 5 5 4 4
10 22 20 20 10 6 7 5 4 6 4 3 4 8 5 5 4 6 10 9 7 6 8 7 5 3 3 4 5 6 6 7 4 6 8 8 8 10 10 7 8 10 10 12 11 10 9 8 8 7 6 4 3 3
10 10 15 9 6 9 7 3 5 3 4 3 1 2 3 3 10 9 8 8 10 7 6 5 4 5 7 7 8 6 9 9 9 7 5 6 8 9 9 9 10 9 9 8 8 8 9 7 5 5 4 3 2 2
3 9 4 9 8 7 6 7 4 1 4 1 3 3 3 3 3 5 4 9 7 6 5 4 7 6 8 13 11 12 11 11 12 10 13 10 9 9 9 8 9 9 9 8 7 7 6 4 4 4 4 3 3 3
4 7 7 8 10 9 3 4 7 5 5 3 4 5 4 4 3 3 6 6 5 6 5 5 9 11 11 11 13 14 14 13 10 9 9 9 9 9 9 10 8 8 8 8 6 6 5 6 6 4 3 3 3 3
9 9 8 7 8 2 4 6 4 4 5 5 4 4 4 3 2 6 5 3 4 7 8 10 6 5 6 11 10 9 9 7 8 9 8 7 8 9 8 8 8 8 7 6 6 5 5 5 5 5 4 3 3 2
13 10 8 8 5 8 7 6 6 6 4 3 4 3 2 3 5 5 3 2 3 5 5 5 6 7 6 5 6 7 10 7 6 8 8 5 5 5 6 7 7 7 5 5 5 4 4 4 4 3 3 3 4 4
11 6 6 3 3 5 1 4 4 3 3 4 3 3 4 5 6 4 3 1 2 3 3 3 3 4 6 6 5 6 6 4 6 9 8 8 7 5 5 5 3 4 4 3 3 3 3 3 3 5 4 5 4 3
8 5 4 3 3 4 5 3 3 6 5 5 3 5 5 6 3 2 2 3 2 2 4 5 5 5 5 5 4 5 5 6 7 7 6 7 7 6 4 3 3 2 2 2 2 2 1 3 3 3 4 3 4 3
3 5 5 6 6 4 5 4 4 4 2 4 4 7 4 3 2 3 2 2 3 5 6 7 7 6 6 5 4 3 4 4 5 4 3 5 6 6 6 5 5 9 5 3 2 2 3 4 3 4 3 4 5 3
4 3 5 7 6 6 6 3 2 3 4 3 4 3 3 3 3 3 4 4 4 5 5 4 3 2 4 4 5 5 5 4 5 6 5 3 4 4 3 3 3 4 3 3 7 8 7 3 2 3 5 4 4 2
4 2 6 4 6 4 3 2 2 2 5 4 5 4 4 3 4 4 4 5 5 5 2 2 2 4 2 3 2 4 4 3 3 4 3 1 4 4 3 3 3 3 3 3 4 5 7 5 6 5 5 4 3 3
2 4 5 4 3 0 3 2 4 5 5 5 4 5 3 3 2 4 5 3 3 3 4 4 4 2 4 3 3 3 3 3 3 2 1 2 3 3 3 3 3 2 2 3 3 3 3 3 3 4 5 7 7 3
4 3 5 4 0 2 2 1 2 4 2 4 1 2 3 5 2 2 3 2 4 4 2 1 2 2 1 2 2 1 3 2 2 2 3 2 3 3 3 3 2 2 3 3 3 2 2 2 3 4 4 7 7 6
4 3 4 4 4 3 3 4 4 3 4 3 1 2 2 4 4 3 1 2 4 3 2 3 3 1 4 4 3 0 2 2 4 4 4 1 2 3 2 2 2 2 3 3 2 1 2 2 2 3 5 6 6 5
Wind_Direction
96 106 116 127 137 147 155 159 164 170 176 180 185 189 189 186 172 173 191 235 270 188 292 329 328 165 186 202 204 175 126 248 64 152 162 200 138 207 102 164 176 157 145 176 85 67 281 184 122 167 208 71 131 145
110 119 126 130 135 142 151 160 167 174 178 183 187 187 184 176 162 164 205 227 164 110 296 320 278 258 233 232 194 212 201 160 180 133 166 135 113 59 137 204 145 207 181 177 172 207 227 268 238 152 153 139 154 136
107 114 119 125 133 143 154 161 170 178 177 184 187 179 171 170 171 172 208 173 72 20 316 302 244 257 199 217 205 180 292 181 135 142 150 182 141 130 152 234 107 236 174 123 104 252 228 280 38 62 88 108 99 91
107 114 121 128 131 141 146 162 172 183 185 181 183 175 169 171 168 181 209 163 149 122 221 263 292 305 250 212 195 201 171 105 102 106 145 154 135 163 209 171 158 197 134 131 75 39 79 7 59 116 96 91 88 74
115 120 126 124 135 144 145 144 136 150 176 178 175 170 168 173 175 163 205 161 121 192 329 301 315 276 256 234 202 186 147 123 151 118 114 180 152 117 75 1 222 195 163 160 211 187 156 152 145 129 113 111 109 112
122 122 127 133 122 114 115 123 137 132 172 174 172 175 177 175 142 139 73 253 129 153 344 310 286 297 345 315 171 183 157 89 128 133 189 14 71 135 131 232 265 190 185 165 173 132 97 111 93 94 112 113 107 108
130 123 119 120 118 113 105 105 114 119 117 122 117 128 126 121 115 177 192 185 138 115 36 287 313 293 304 31 69 72 62 98 109 130 87 178 141 112 118 205 194 110 102 104 115 109 80 132 143 114 112 111 105 98
141 139 134 126 121 117 111 102 100 110 118 118 118 123 132 139 78 329 339 136 130 110 60 293 284 336 10 8 80 334 73 41 29 138 129 72 23 50 145 217 74 110 107 94 32 79 112 116 112 113 117 119 108 105
147 142 138 134 126 120 114 112 111 114 118 124 128 121 107 59 155 239 132 170 46 108 181 189 194 241 47 346 29 73 167 82 167 38 39 107 14 207 219 152 147 156 126 121 99 103 114 116 123 124 122 118 115 114
144 140 135 133 131 129 126 128 126 126 123 122 124 153 168 194 147 134 24 31 274 213 193 217 204 173 78 42 240 102 59 149 132 237 121 84 168 263 297 116 132 127 125 124 109 112 119 120 131 133 129 123 119 117
165 154 149 143 145 148 146 147 145 138 136 202 157 198 108 138 70 40 152 199 204 354 236 262 187 134 85 201 197 148 146 190 150 203 135 137 227 167 170 121 126 138 132 108 109 122 130 136 137 131 120 115 115 119
182 172 164 167 163 165 171 166 169 164 187 162 173 110 85 66 73 118 234 281 222 206 294 195 53 65 334 211 106 355 96 43 85 141 80 153 85 123 132 124 110 109 115 117 127 131 131 125 123 117 117 117 117 119
159 181 189 185 189 180 155 182 173 276 89 197 35 45 22 29 90 222 174 172 159 343 346 28 43 50 351 28 53 64 70 74 68 67 167 82 75 113 111 104 98 112 110 108 108 108 106 107 109 118 118 119 117 112
99 119 143 166 171 162 164 174 191 209 31 53 56 67 48 51 52 16 343 17 6 291 360 59 65 51 324 50 0 72 16 64 80 126 217 120 126 121 117 120 115 107 106 109 110 112 109 107 103 106 111 119 119 117
79 79 77 98 124 136 165 182 168 26 56 70 69 65 47 360 27 339 292 2 324 319 28 39 48 63 23 64 33 84 43 54 70 273 6 70 112 117 119 112 109 108 110 110 113 108 108 114 113 108 108 109 106 104
67 54 45 93 104 125 151 120 57 82 65 72 46 38 359 31 19 20 6 11 1 339 5 39 92 61 58 85 56 14 35 46 17 336 326 99 109 112 110 106 103 104 104 106 109 117 118 117 120 116 110 110 106 113
77 74 334 141 106 80 109 123 80 56 64 46 22 6 359 35 23 15 346 348 309 91 58 42 47 22 28 51 47 20 27 338 317 319 29 105 121 114 109 106 108 113 117 118 115 109 112 111 113 115 123 132 125 116
50 311 348 248 165 61 37 35 66 58 51 36 52 18 45 28 358 14 356 356 29 46 31 44 31 39 36 34 22 1 316 316 350 30 80 90 100 108 114 117 122 121 117 115 116 113 114 121 121 116 116 119 118 132
49 34 29 37 96 91 58 24 42 78 42 19 6 23 38 36 19 0 5 11 30 48 74 51 43 36 35 4 318 326 330 337 6 37 52 50 62 94 98 95 99 100 100 108 111 99 90 84 85 90 89 95 104 105
23 30 20 21 46 78 72 43 57 78 62 78 89 51 44 32 346 13 26 21 32 59 48 50 37 15 11 345 338 341 342 339 5 61 53 39 36 57 56 71 84 93 90 89 84 86 88 75 64 61 61 72 89 97
28 351 13 29 49 61 79 46 64 87 117 91 219 110 97 60 42 32 30 359 44 38 61 45 49 34 22 23 11 10 24 26 33 24 53 59 42 54 57 56 67 69 74 73 77 69 66 70 72 76 71 53 66 93
350 20 51 26 66 55 62 19 93 74 76 153 48 55 52 51 30 31 53 38 55 31 27 27 34 32 32 29 24 23 29 44 46 50 48 48 49 47 45 46 65 67 61 59 68 74 69 62 65 70 63 38 61 64
10 36 44 34 63 51 314 19 55 15 61 353 26 38 23 40 45 38 67 38 45 5 22 55 52 46 44 36 36 36 33 42 47 47 49 55 57 53 53 48 48 63 66 53 54 60 60 58 54 48 33 36 33 26
32 51 47 48 49 65 18 23 21 42 36 31 40 44 30 46 47 59 69 55 7 5 23 27 28 49 42 38 37 28 23 33 55 48 41 58 63 53 52 54 49 45 44 51 52 48 43 37 30 38 26 27 17 2
62 359 63 11 358 57 38 18 6 50 51 19 63 5 10 52 68 64 73 53 11 9 11 23 42 41 53 47 36 32 27 34 50 59 25 44 78 82 72 65 57 47 37 52 40 40 32 23 26 29 25 39 36 11
69 354 54 43 349 81 111 65 52 47 57 43 16 350 44 67 64 58 66 64 357 1 345 14 42 55 56 42 37 24 5 13 68 69 42 38 43 55 59 56 43 44 25 74 96 54 11 357 1 1 349 337 335 354
55 15 358 29 82 81 47 43 57 69 56 36 358 25 55 64 65 77 85 32 64 12 39 41 52 55 50 35 36 22 25 49 68 83 82 62 52 44 65 82 34 298 333 70 93 139 270 294 295 301 290 291 264 248
79 54 69 311 46 19 95 53 54 45 13 330 60 36 88 120 78 35 6 73 93 82 72 62 59 62 62 45 30 30 42 61 84 79 73 72 50 43 29 25 22 21 8 351 306 267 225 250 252 256 258 263 283 276
45 6 63 23 35 36 37 79 77 45 353 61 93 76 78 60 353 351 1 31 52 69 74 73 43 33 56 45 43 34 29 45 77 57 47 345 348 323 357 352 348 349 345 352 338 346 319 304 276 240 264 249 271 290
322 44 85 52 65 56 3 82 96 349 35 80 95 91 67 46 3 358 43 53 65 73 58 66 33 61 54 71 20 23 22 35 80 118 121 309 257 281 323 332 331 324 334 354 337 323 349 11 353 359 360 340 338 322
2 55 66 62 86 161 151 146 92 75 57 46 28 90 132 140 23 23 41 29 65 55 56 37 25 14 76 50 87 76 2 338 9 22 194 261 273 283 287 287 283 304 341 5 4 4 354 353 358 345 343 344 332 326
28 62 116 98 57 332 28 83 99 90 68 76 34 60 43 54 51 339 342 57 48 45 2 87 63 326 125 155 178 181 161 266 315 315 324 324 319 296 298 301 311 337 346 348 7 357 2 349 327 332 324 324 328 333
44 37 46 72 36 14 334 73 66 68 44 66 67 122 113 134 168 222 329 67 138 169 231 248 255 206 151 134 119 18 349 297 298 324 345 309 333 329 327 318 332 333 333 344 339 318 343 346 323 320 323 328 327 326